Year,Month,Day,Hour,Minute,Value (Times are PST for temperature in C)
2010,07,17,00,00,14.60
2010,07,17,00,01,14.60
2010,07,17,00,02,14.60
2010,07,17,00,03,14.60
2010,07,17,00,04,14.60
2010,07,17,00,05,14.60
2010,07,17,00,06,14.60
2010,07,17,00,07,14.50
2010,07,17,00,08,14.50
2010,07,17,00,09,14.50
2010,07,17,00,10,14.50
2010,07,17,00,11,14.50
2010,07,17,00,12,14.40
2010,07,17,00,13,14.40
2010,07,17,00,14,14.40
2010,07,17,00,15,14.30
2010,07,17,00,16,14.30
2010,07,17,00,17,14.30
2010,07,17,00,18,14.30
2010,07,17,00,19,14.20
2010,07,17,00,20,14.20
2010,07,17,00,21,14.20
2010,07,17,00,22,14.20
2010,07,17,00,23,14.20
2010,07,17,00,24,14.20
2010,07,17,00,25,14.10
2010,07,17,00,26,14.10
2010,07,17,00,27,14.10
2010,07,17,00,28,14.10
2010,07,17,00,29,14.10
2010,07,17,00,30,14.00
2010,07,17,00,31,14.00
2010,07,17,00,32,14.00
2010,07,17,00,33,14.00
2010,07,17,00,34,14.00
2010,07,17,00,35,14.00
2010,07,17,00,36,14.00
2010,07,17,00,37,13.90
2010,07,17,00,38,13.90
2010,07,17,00,39,13.90
2010,07,17,00,40,13.90
2010,07,17,00,41,13.90
2010,07,17,00,42,13.90
2010,07,17,00,43,13.80
2010,07,17,00,44,13.80
2010,07,17,00,45,13.80
2010,07,17,00,46,13.80
2010,07,17,00,47,13.70
2010,07,17,00,48,13.70
2010,07,17,00,49,13.70
2010,07,17,00,50,13.70
2010,07,17,00,51,13.70
2010,07,17,00,52,13.70
2010,07,17,00,53,13.70
2010,07,17,00,54,13.70
2010,07,17,00,55,13.60
2010,07,17,00,56,13.60
2010,07,17,00,57,13.60
2010,07,17,00,58,13.60
2010,07,17,00,59,13.60
2010,07,17,01,00,13.50
2010,07,17,01,01,13.50
2010,07,17,01,02,13.50
2010,07,17,01,03,13.40
2010,07,17,01,04,13.40
2010,07,17,01,05,13.40
2010,07,17,01,06,13.40
2010,07,17,01,07,13.40
2010,07,17,01,08,13.40
2010,07,17,01,09,13.30
2010,07,17,01,10,13.30
2010,07,17,01,11,13.30
2010,07,17,01,12,13.30
2010,07,17,01,13,13.30
2010,07,17,01,14,13.30
2010,07,17,01,15,13.30
2010,07,17,01,16,13.30
2010,07,17,01,17,13.30
2010,07,17,01,18,13.20
2010,07,17,01,19,13.20
2010,07,17,01,20,13.20
2010,07,17,01,21,13.20
2010,07,17,01,22,13.10
2010,07,17,01,23,13.10
2010,07,17,01,24,13.10
2010,07,17,01,25,13.10
2010,07,17,01,26,13.10
2010,07,17,01,27,13.10
2010,07,17,01,28,13.10
2010,07,17,01,29,13.10
2010,07,17,01,30,13.10
2010,07,17,01,31,13.10
2010,07,17,01,32,13.10
2010,07,17,01,33,13.10
2010,07,17,01,34,13.10
2010,07,17,01,35,13.10
2010,07,17,01,36,13.10
2010,07,17,01,37,13.10
2010,07,17,01,38,13.10
2010,07,17,01,39,13.10
2010,07,17,01,40,13.10
2010,07,17,01,41,13.10
2010,07,17,01,42,13.10
2010,07,17,01,43,13.20
2010,07,17,01,44,13.20
2010,07,17,01,45,13.20
2010,07,17,01,46,13.10
2010,07,17,01,47,13.10
2010,07,17,01,48,13.10
2010,07,17,01,49,13.10
2010,07,17,01,50,13.10
2010,07,17,01,51,13.10
2010,07,17,01,52,13.10
2010,07,17,01,53,13.10
2010,07,17,01,54,13.10
2010,07,17,01,55,13.10
2010,07,17,01,56,13.00
2010,07,17,01,57,13.00
2010,07,17,01,58,13.00
2010,07,17,01,59,13.00
2010,07,17,02,00,13.00
2010,07,17,02,01,13.00
2010,07,17,02,02,13.00
2010,07,17,02,03,13.00
2010,07,17,02,04,12.90
2010,07,17,02,05,12.90
2010,07,17,02,06,12.90
2010,07,17,02,07,12.80
2010,07,17,02,08,12.80
2010,07,17,02,09,12.70
2010,07,17,02,10,12.60
2010,07,17,02,11,12.50
2010,07,17,02,12,12.50
2010,07,17,02,13,12.40
2010,07,17,02,14,12.30
2010,07,17,02,15,12.30
2010,07,17,02,16,12.20
2010,07,17,02,17,12.20
2010,07,17,02,18,12.10
2010,07,17,02,19,12.10
2010,07,17,02,20,12.10
2010,07,17,02,21,12.00
2010,07,17,02,22,12.00
2010,07,17,02,23,12.00
2010,07,17,02,24,12.00
2010,07,17,02,25,12.00
2010,07,17,02,26,12.00
2010,07,17,02,27,12.00
2010,07,17,02,28,12.00
2010,07,17,02,29,12.00
2010,07,17,02,30,12.00
2010,07,17,02,31,12.00
2010,07,17,02,32,12.00
2010,07,17,02,33,12.00
2010,07,17,02,34,12.00
2010,07,17,02,35,12.00
2010,07,17,02,36,12.00
2010,07,17,02,37,12.00
2010,07,17,02,38,12.00
2010,07,17,02,39,12.00
2010,07,17,02,40,12.00
2010,07,17,02,41,12.00
2010,07,17,02,42,12.00
2010,07,17,02,43,12.00
2010,07,17,02,44,12.00
2010,07,17,02,45,12.00
2010,07,17,02,46,12.00
2010,07,17,02,47,12.00
2010,07,17,02,48,12.00
2010,07,17,02,49,12.00
2010,07,17,02,50,12.00
2010,07,17,02,51,12.00
2010,07,17,02,52,12.10
2010,07,17,02,53,12.10
2010,07,17,02,54,12.10
2010,07,17,02,55,12.10
2010,07,17,02,56,12.10
2010,07,17,02,57,12.10
2010,07,17,02,58,12.10
2010,07,17,02,59,12.10
2010,07,17,03,00,12.10
2010,07,17,03,01,12.10
2010,07,17,03,02,12.10
2010,07,17,03,03,12.10
2010,07,17,03,04,12.10
2010,07,17,03,05,12.10
2010,07,17,03,06,12.10
2010,07,17,03,07,12.10
2010,07,17,03,08,12.10
2010,07,17,03,59,11.60
2010,07,17,04,00,11.50
2010,07,17,04,01,11.40
2010,07,17,04,02,11.40
2010,07,17,04,03,11.40
2010,07,17,04,04,11.40
2010,07,17,04,05,11.40
2010,07,17,04,06,11.40
2010,07,17,04,07,11.40
2010,07,17,04,08,11.40
2010,07,17,04,09,11.40
2010,07,17,04,10,11.40
2010,07,17,04,11,11.40
2010,07,17,04,12,11.40
2010,07,17,04,13,11.40
2010,07,17,04,14,11.40
2010,07,17,04,15,11.40
2010,07,17,04,16,11.30
2010,07,17,04,17,11.30
2010,07,17,04,18,11.30
2010,07,17,04,19,11.30
2010,07,17,04,20,11.30
2010,07,17,04,21,11.30
2010,07,17,04,22,11.30
2010,07,17,04,23,11.20
2010,07,17,04,24,11.20
2010,07,17,04,25,11.20
2010,07,17,04,26,11.20
2010,07,17,04,27,11.10
2010,07,17,04,28,11.10
2010,07,17,04,29,11.10
2010,07,17,04,30,11.10
2010,07,17,04,31,11.10
2010,07,17,04,32,11.10
2010,07,17,04,33,11.10
2010,07,17,04,34,11.10
2010,07,17,04,35,11.10
2010,07,17,04,36,11.10
2010,07,17,04,37,11.00
2010,07,17,04,38,10.90
2010,07,17,04,39,10.90
2010,07,17,04,40,10.90
2010,07,17,04,41,10.90
2010,07,17,04,42,10.90
2010,07,17,04,43,10.90
2010,07,17,04,44,10.90
2010,07,17,04,45,10.90
2010,07,17,04,46,10.90
2010,07,17,04,47,10.80
2010,07,17,04,48,10.80
2010,07,17,04,49,10.80
2010,07,17,04,50,10.80
2010,07,17,04,51,10.80
2010,07,17,04,52,10.80
2010,07,17,04,53,10.80
2010,07,17,04,54,10.80
2010,07,17,04,55,10.80
2010,07,17,04,56,10.80
2010,07,17,04,57,10.80
2010,07,17,04,58,10.80
2010,07,17,04,59,10.80
2010,07,17,05,00,10.80
2010,07,17,05,01,10.80
2010,07,17,05,02,10.80
2010,07,17,05,03,10.80
2010,07,17,05,04,10.80
2010,07,17,05,05,10.80
2010,07,17,05,06,10.70
2010,07,17,05,07,10.70
2010,07,17,05,08,10.70
2010,07,17,05,09,10.70
2010,07,17,05,10,10.70
2010,07,17,05,11,10.70
2010,07,17,05,12,10.70
2010,07,17,05,13,10.70
2010,07,17,05,14,10.70
2010,07,17,05,15,10.70
2010,07,17,05,16,10.70
2010,07,17,05,17,10.60
2010,07,17,05,18,10.70
2010,07,17,05,19,10.70
2010,07,17,05,20,10.70
2010,07,17,05,21,10.70
2010,07,17,05,22,10.70
2010,07,17,05,23,10.70
2010,07,17,05,24,10.70
2010,07,17,05,25,10.80
2010,07,17,05,26,10.80
2010,07,17,05,27,10.80
2010,07,17,05,28,10.90
2010,07,17,05,29,10.90
2010,07,17,05,30,10.90
2010,07,17,05,31,10.90
2010,07,17,05,32,11.00
2010,07,17,05,33,11.10
2010,07,17,05,34,11.10
2010,07,17,05,35,11.10
2010,07,17,05,36,11.10
2010,07,17,05,37,11.10
2010,07,17,05,38,11.10
2010,07,17,05,39,11.10
2010,07,17,05,40,11.10
2010,07,17,05,41,11.10
2010,07,17,05,42,11.10
2010,07,17,05,43,11.10
2010,07,17,05,44,11.10
2010,07,17,05,45,11.10
2010,07,17,05,46,11.10
2010,07,17,05,47,11.10
2010,07,17,05,48,11.10
2010,07,17,05,49,11.10
2010,07,17,05,50,11.10
2010,07,17,05,51,11.10
2010,07,17,05,52,11.10
2010,07,17,05,53,11.10
2010,07,17,05,54,11.10
2010,07,17,05,55,11.10
2010,07,17,05,56,11.10
2010,07,17,05,57,11.10
2010,07,17,05,58,11.10
2010,07,17,05,59,11.10
2010,07,17,06,00,11.10
2010,07,17,06,01,11.20
2010,07,17,06,02,11.20
2010,07,17,06,03,11.20
2010,07,17,06,04,11.20
2010,07,17,06,05,11.20
2010,07,17,06,06,11.20
2010,07,17,06,07,11.20
2010,07,17,06,08,11.30
2010,07,17,06,09,11.30
2010,07,17,06,10,11.30
2010,07,17,06,11,11.30
2010,07,17,06,12,11.30
2010,07,17,06,13,11.40
2010,07,17,06,14,11.40
2010,07,17,06,15,11.40
2010,07,17,06,16,11.40
2010,07,17,06,17,11.50
2010,07,17,06,18,11.60
2010,07,17,06,19,11.60
2010,07,17,06,20,11.60
2010,07,17,06,21,11.60
2010,07,17,06,22,11.60
2010,07,17,06,23,11.60
2010,07,17,06,24,11.70
2010,07,17,06,25,11.70
2010,07,17,06,26,11.70
2010,07,17,06,27,11.70
2010,07,17,06,28,11.70
2010,07,17,06,29,11.70
2010,07,17,06,30,11.80
2010,07,17,06,31,11.80
2010,07,17,06,32,11.80
2010,07,17,06,33,11.80
2010,07,17,06,34,11.90
2010,07,17,06,35,11.90
2010,07,17,06,36,12.00
2010,07,17,06,37,12.00
2010,07,17,06,38,12.10
2010,07,17,06,39,12.20
2010,07,17,06,40,12.30
2010,07,17,06,41,12.40
2010,07,17,06,42,12.50
2010,07,17,06,43,12.60
2010,07,17,06,44,12.70
2010,07,17,06,45,12.80
2010,07,17,06,46,12.80
2010,07,17,06,47,12.80
2010,07,17,06,48,12.90
2010,07,17,06,49,13.00
2010,07,17,06,50,13.10
2010,07,17,06,51,13.10
2010,07,17,06,52,13.20
2010,07,17,06,53,13.30
2010,07,17,06,54,13.40
2010,07,17,06,55,13.50
2010,07,17,06,56,13.50
2010,07,17,06,57,13.60
2010,07,17,06,58,13.70
2010,07,17,06,59,13.70
2010,07,17,07,00,13.70
2010,07,17,07,01,13.80
2010,07,17,07,02,13.80
2010,07,17,07,03,13.80
2010,07,17,07,04,13.80
2010,07,17,07,05,13.80
2010,07,17,07,06,13.90
2010,07,17,07,07,13.90
2010,07,17,07,08,14.00
2010,07,17,07,09,14.00
2010,07,17,07,10,14.10
2010,07,17,07,11,14.20
2010,07,17,07,12,14.20
2010,07,17,07,13,14.30
2010,07,17,07,14,14.30
2010,07,17,07,15,14.50
2010,07,17,07,16,14.60
2010,07,17,07,17,14.60
2010,07,17,07,18,14.70
2010,07,17,07,19,14.80
2010,07,17,07,20,14.80
2010,07,17,07,21,14.80
2010,07,17,07,22,14.80
2010,07,17,07,23,14.80
2010,07,17,07,24,14.80
2010,07,17,07,25,14.80
2010,07,17,07,26,14.80
2010,07,17,07,27,14.80
2010,07,17,07,28,14.80
2010,07,17,07,29,14.90
2010,07,17,07,30,14.80
2010,07,17,07,31,14.80
2010,07,17,07,32,14.80
2010,07,17,07,33,14.80
2010,07,17,07,34,14.80
2010,07,17,07,35,14.80
2010,07,17,07,36,14.80
2010,07,17,07,37,14.80
2010,07,17,07,38,14.80
2010,07,17,07,39,14.80
2010,07,17,07,40,14.80
2010,07,17,07,41,14.80
2010,07,17,07,42,14.80
2010,07,17,07,43,14.80
2010,07,17,07,44,14.80
2010,07,17,07,45,14.90
2010,07,17,07,46,14.90
2010,07,17,07,47,14.90
2010,07,17,07,48,14.90
2010,07,17,07,49,14.90
2010,07,17,07,50,14.90
2010,07,17,07,51,14.90
2010,07,17,07,52,14.80
2010,07,17,07,53,14.80
2010,07,17,07,54,14.80
2010,07,17,07,55,14.80
2010,07,17,07,56,14.80
2010,07,17,07,57,14.80
2010,07,17,07,58,14.80
2010,07,17,07,59,14.80
2010,07,17,08,00,14.80
2010,07,17,08,01,14.80
2010,07,17,08,02,14.70
2010,07,17,08,03,14.70
2010,07,17,08,04,14.70
2010,07,17,08,05,14.70
2010,07,17,08,06,14.70
2010,07,17,08,07,14.70
2010,07,17,08,08,14.70
2010,07,17,08,09,14.70
2010,07,17,08,10,14.70
2010,07,17,08,11,14.80
2010,07,17,08,12,14.90
2010,07,17,08,13,14.90
2010,07,17,08,14,15.00
2010,07,17,08,15,15.00
2010,07,17,08,16,15.10
2010,07,17,08,17,15.10
2010,07,17,08,18,15.20
2010,07,17,08,19,15.30
2010,07,17,08,20,15.30
2010,07,17,08,21,15.30
2010,07,17,08,22,15.30
2010,07,17,08,23,15.30
2010,07,17,08,24,15.20
2010,07,17,08,25,15.20
2010,07,17,08,26,15.20
2010,07,17,08,27,15.20
2010,07,17,08,28,15.20
2010,07,17,08,29,15.20
2010,07,17,08,30,15.20
2010,07,17,08,31,15.10
2010,07,17,08,32,15.10
2010,07,17,08,33,15.10
2010,07,17,08,34,15.20
2010,07,17,08,35,15.30
2010,07,17,08,36,15.30
2010,07,17,08,37,15.30
2010,07,17,08,38,15.50
2010,07,17,08,39,15.60
2010,07,17,08,40,15.70
2010,07,17,08,41,15.80
2010,07,17,08,42,15.80
2010,07,17,08,43,15.80
2010,07,17,08,44,15.90
2010,07,17,08,45,15.90
2010,07,17,08,46,15.90
2010,07,17,08,47,15.90
2010,07,17,08,48,15.90
2010,07,17,08,49,15.80
2010,07,17,08,50,15.80
2010,07,17,08,51,15.80
2010,07,17,08,52,15.80
2010,07,17,08,53,15.80
2010,07,17,08,54,15.80
2010,07,17,08,55,15.70
2010,07,17,08,56,15.60
2010,07,17,08,57,15.60
2010,07,17,08,58,15.60
2010,07,17,08,59,15.70
2010,07,17,09,00,15.60
2010,07,17,09,01,15.60
2010,07,17,09,02,15.70
2010,07,17,09,03,15.70
2010,07,17,09,04,15.70
2010,07,17,09,05,15.80
2010,07,17,09,06,15.90
2010,07,17,09,07,16.10
2010,07,17,09,08,16.10
2010,07,17,09,09,16.20
2010,07,17,09,10,16.30
2010,07,17,09,11,16.40
2010,07,17,09,12,16.40
2010,07,17,09,13,16.30
2010,07,17,09,14,16.30
2010,07,17,09,15,16.20
2010,07,17,09,16,16.20
2010,07,17,09,17,16.20
2010,07,17,09,18,16.30
2010,07,17,09,19,16.20
2010,07,17,09,20,16.30
2010,07,17,09,21,16.30
2010,07,17,09,22,16.30
2010,07,17,09,23,16.20
2010,07,17,09,24,16.00
2010,07,17,09,25,15.80
2010,07,17,09,26,15.70
2010,07,17,09,27,15.70
2010,07,17,09,28,15.60
2010,07,17,09,29,15.40
2010,07,17,09,30,15.30
2010,07,17,09,31,15.30
2010,07,17,09,32,15.30
2010,07,17,09,33,15.40
2010,07,17,09,34,15.50
2010,07,17,09,35,15.60
2010,07,17,09,36,15.60
2010,07,17,09,37,15.60
2010,07,17,09,38,15.60
2010,07,17,09,39,15.60
2010,07,17,09,40,15.60
2010,07,17,09,41,15.50
2010,07,17,09,42,15.50
2010,07,17,09,43,15.40
2010,07,17,09,44,15.50
2010,07,17,09,45,15.60
2010,07,17,09,46,15.70
2010,07,17,09,47,15.70
2010,07,17,09,48,15.60
2010,07,17,09,49,15.70
2010,07,17,09,50,15.80
2010,07,17,09,51,15.80
2010,07,17,09,52,15.80
2010,07,17,09,53,15.80
2010,07,17,09,54,15.80
2010,07,17,09,55,15.80
2010,07,17,09,56,15.80
2010,07,17,09,57,15.70
2010,07,17,09,58,15.60
2010,07,17,09,59,15.60
2010,07,17,10,00,15.60
2010,07,17,10,01,15.70
2010,07,17,10,02,15.80
2010,07,17,10,03,16.10
2010,07,17,10,04,16.20
2010,07,17,10,05,16.30
2010,07,17,10,06,16.30
2010,07,17,10,07,16.10
2010,07,17,10,08,16.00
2010,07,17,10,09,15.90
2010,07,17,10,10,15.90
2010,07,17,10,11,15.90
2010,07,17,10,12,15.80
2010,07,17,10,13,15.80
2010,07,17,10,14,15.90
2010,07,17,10,15,15.80
2010,07,17,10,16,15.60
2010,07,17,10,17,15.60
2010,07,17,10,18,15.60
2010,07,17,10,19,15.50
2010,07,17,10,20,15.50
2010,07,17,10,21,15.50
2010,07,17,10,22,15.60
2010,07,17,10,23,15.60
2010,07,17,10,24,15.60
2010,07,17,10,25,15.60
2010,07,17,10,26,15.70
2010,07,17,10,27,15.70
2010,07,17,10,28,15.70
2010,07,17,10,29,15.80
2010,07,17,10,30,15.80
2010,07,17,10,31,15.80
2010,07,17,10,32,15.80
2010,07,17,10,33,15.80
2010,07,17,10,34,15.80
2010,07,17,10,35,15.70
2010,07,17,10,36,15.60
2010,07,17,10,37,15.50
2010,07,17,10,38,15.40
2010,07,17,10,39,15.40
2010,07,17,10,40,15.40
2010,07,17,10,41,15.50
2010,07,17,10,42,15.60
2010,07,17,10,43,15.70
2010,07,17,10,44,16.00
2010,07,17,10,45,16.10
2010,07,17,10,46,16.20
2010,07,17,10,47,16.40
2010,07,17,10,48,16.50
2010,07,17,10,49,16.60
2010,07,17,10,50,16.60
2010,07,17,10,51,16.70
2010,07,17,10,52,16.60
2010,07,17,10,53,16.40
2010,07,17,10,54,16.50
2010,07,17,10,55,16.60
2010,07,17,10,56,16.60
2010,07,17,10,57,16.70
2010,07,17,10,58,16.80
2010,07,17,10,59,16.90
2010,07,17,11,00,17.10
2010,07,17,11,01,17.20
2010,07,17,11,02,17.20
2010,07,17,11,03,17.20
2010,07,17,11,04,17.20
2010,07,17,11,05,17.30
2010,07,17,11,06,17.30
2010,07,17,11,07,17.30
2010,07,17,11,08,17.30
2010,07,17,11,09,17.20
2010,07,17,11,10,17.10
2010,07,17,11,11,17.00
2010,07,17,11,12,16.90
2010,07,17,11,13,16.80
2010,07,17,11,14,16.70
2010,07,17,11,15,16.70
2010,07,17,11,16,16.70
2010,07,17,11,17,16.70
2010,07,17,11,18,16.80
2010,07,17,11,19,16.70
2010,07,17,11,20,16.70
2010,07,17,11,21,16.70
2010,07,17,11,22,16.70
2010,07,17,11,23,16.70
2010,07,17,11,24,16.70
2010,07,17,11,25,16.70
2010,07,17,11,26,16.70
2010,07,17,11,27,16.80
2010,07,17,11,28,16.90
2010,07,17,11,29,17.00
2010,07,17,11,30,16.90
2010,07,17,11,31,16.80
2010,07,17,11,32,16.70
2010,07,17,11,33,16.80
2010,07,17,11,34,16.90
2010,07,17,11,35,16.90
2010,07,17,11,36,16.90
2010,07,17,11,37,16.90
2010,07,17,11,38,16.90
2010,07,17,11,39,17.00
2010,07,17,11,40,17.10
2010,07,17,11,41,17.00
2010,07,17,11,42,17.00
2010,07,17,11,43,17.00
2010,07,17,11,44,17.10
2010,07,17,11,45,17.00
2010,07,17,11,46,16.90
2010,07,17,11,47,16.80
2010,07,17,11,48,16.80
2010,07,17,11,49,16.70
2010,07,17,11,50,16.70
2010,07,17,11,51,16.70
2010,07,17,11,52,16.70
2010,07,17,11,53,16.70
2010,07,17,11,54,16.70
2010,07,17,11,55,16.70
2010,07,17,11,56,16.70
2010,07,17,11,57,16.70
2010,07,17,11,58,16.70
2010,07,17,11,59,16.70
2010,07,17,12,00,16.70
2010,07,17,12,01,16.80
2010,07,17,12,02,16.80
2010,07,17,12,03,16.80
2010,07,17,12,04,16.80
2010,07,17,12,05,16.80
2010,07,17,12,06,16.80
2010,07,17,12,07,16.80
2010,07,17,12,08,16.80
2010,07,17,12,09,16.80
2010,07,17,12,10,16.70
2010,07,17,12,11,16.70
2010,07,17,12,12,16.80
2010,07,17,12,13,16.90
2010,07,17,12,14,16.80
2010,07,17,12,15,16.40
2010,07,17,12,16,16.20
2010,07,17,12,17,16.20
2010,07,17,12,18,16.10
2010,07,17,12,19,16.00
2010,07,17,12,20,15.80
2010,07,17,12,21,15.80
2010,07,17,12,22,15.80
2010,07,17,12,23,15.80
2010,07,17,12,24,15.80
2010,07,17,12,25,15.90
2010,07,17,12,26,16.10
2010,07,17,12,27,16.10
2010,07,17,12,28,16.20
2010,07,17,12,29,16.20
2010,07,17,12,30,16.10
2010,07,17,12,31,16.20
2010,07,17,12,32,16.20
2010,07,17,12,33,16.20
2010,07,17,12,34,16.30
2010,07,17,12,35,16.20
2010,07,17,12,36,16.20
2010,07,17,12,37,16.20
2010,07,17,12,38,16.10
2010,07,17,12,39,15.90
2010,07,17,12,40,15.80
2010,07,17,12,41,15.80
2010,07,17,12,42,15.80
2010,07,17,12,43,15.90
2010,07,17,12,44,15.90
2010,07,17,12,45,15.70
2010,07,17,12,46,15.50
2010,07,17,12,47,15.40
2010,07,17,12,48,15.40
2010,07,17,12,49,15.50
2010,07,17,12,50,15.70
2010,07,17,12,51,15.70
2010,07,17,12,52,15.70
2010,07,17,12,53,15.70
2010,07,17,12,54,15.70
2010,07,17,12,55,15.80
2010,07,17,12,56,15.80
2010,07,17,12,57,15.80
2010,07,17,12,58,15.80
2010,07,17,12,59,15.80
2010,07,17,13,00,15.80
2010,07,17,13,01,15.60
2010,07,17,13,02,15.50
2010,07,17,13,03,15.40
2010,07,17,13,04,15.30
2010,07,17,13,05,15.40
2010,07,17,13,06,15.40
2010,07,17,13,07,15.50
2010,07,17,13,08,15.60
2010,07,17,13,09,15.80
2010,07,17,13,10,15.90
2010,07,17,13,11,15.90
2010,07,17,13,12,16.00
2010,07,17,13,13,16.00
2010,07,17,13,14,15.90
2010,07,17,13,15,15.90
2010,07,17,13,16,15.80
2010,07,17,13,17,15.80
2010,07,17,13,18,15.80
2010,07,17,13,19,16.00
2010,07,17,13,20,16.20
2010,07,17,13,21,16.30
2010,07,17,13,22,16.40
2010,07,17,13,23,16.40
2010,07,17,13,24,16.50
2010,07,17,13,25,16.70
2010,07,17,13,26,16.80
2010,07,17,13,27,16.90
2010,07,17,13,28,16.90
2010,07,17,13,29,16.80
2010,07,17,13,30,16.60
2010,07,17,13,31,16.60
2010,07,17,13,32,16.70
2010,07,17,13,33,16.60
2010,07,17,13,34,16.60
2010,07,17,13,35,16.50
2010,07,17,13,36,16.40
2010,07,17,13,37,16.40
2010,07,17,13,38,16.40
2010,07,17,13,39,16.50
2010,07,17,13,40,16.40
2010,07,17,13,41,16.20
2010,07,17,13,42,16.20
2010,07,17,13,43,16.20
2010,07,17,13,44,16.10
2010,07,17,13,45,16.10
2010,07,17,13,46,16.10
2010,07,17,13,47,16.10
2010,07,17,13,48,16.10
2010,07,17,13,49,16.10
2010,07,17,13,50,16.10
2010,07,17,13,51,16.10
2010,07,17,13,52,16.20
2010,07,17,13,53,16.30
2010,07,17,13,54,16.30
2010,07,17,13,55,16.20
2010,07,17,13,56,16.00
2010,07,17,13,57,15.90
2010,07,17,13,58,15.80
2010,07,17,13,59,15.80
2010,07,17,14,00,15.70
2010,07,17,14,01,15.60
2010,07,17,14,02,15.60
2010,07,17,14,03,15.50
2010,07,17,14,04,15.40
2010,07,17,14,05,15.50
2010,07,17,14,06,15.60
2010,07,17,14,07,15.70
2010,07,17,14,08,15.60
2010,07,17,14,09,15.60
2010,07,17,14,10,15.70
2010,07,17,14,11,15.80
2010,07,17,14,12,16.00
2010,07,17,14,13,16.10
2010,07,17,14,14,16.10
2010,07,17,14,15,16.10
2010,07,17,14,16,16.00
2010,07,17,14,17,15.90
2010,07,17,14,18,15.80
2010,07,17,14,19,15.80
2010,07,17,14,20,16.00
2010,07,17,14,21,16.10
2010,07,17,14,22,16.10
2010,07,17,14,23,16.10
2010,07,17,14,24,16.10
2010,07,17,14,25,16.10
2010,07,17,14,26,16.10
2010,07,17,14,27,16.10
2010,07,17,14,28,16.10
2010,07,17,14,29,16.10
2010,07,17,14,30,16.10
2010,07,17,14,31,16.10
2010,07,17,14,32,16.10
2010,07,17,14,33,16.00
2010,07,17,14,34,15.90
2010,07,17,14,35,16.00
2010,07,17,14,36,16.10
2010,07,17,14,37,16.10
2010,07,17,14,38,16.30
2010,07,17,14,39,16.40
2010,07,17,14,40,16.40
2010,07,17,14,41,16.40
2010,07,17,14,42,16.40
2010,07,17,14,43,16.40
2010,07,17,14,44,16.40
2010,07,17,14,45,16.40
2010,07,17,14,46,16.40
2010,07,17,14,47,16.40
2010,07,17,14,48,16.40
2010,07,17,14,49,16.20
2010,07,17,14,50,16.10
2010,07,17,14,51,16.00
2010,07,17,14,52,16.00
2010,07,17,14,53,16.00
2010,07,17,14,54,15.80
2010,07,17,14,55,15.70
2010,07,17,14,56,15.60
2010,07,17,14,57,15.70
2010,07,17,14,58,15.80
2010,07,17,14,59,15.90
2010,07,17,15,00,16.10
2010,07,17,15,01,16.10
2010,07,17,15,02,16.10
2010,07,17,15,03,16.10
2010,07,17,15,04,16.20
2010,07,17,15,05,16.20
2010,07,17,15,06,16.20
2010,07,17,15,07,16.10
2010,07,17,15,08,16.10
2010,07,17,15,09,15.90
2010,07,17,15,10,15.60
2010,07,17,15,11,15.30
2010,07,17,15,12,15.30
2010,07,17,15,13,15.40
2010,07,17,15,14,15.30
2010,07,17,15,15,15.20
2010,07,17,15,16,15.10
2010,07,17,15,17,15.10
2010,07,17,15,18,15.10
2010,07,17,15,19,15.20
2010,07,17,15,20,15.20
2010,07,17,15,21,15.30
2010,07,17,15,22,15.30
2010,07,17,15,23,15.40
2010,07,17,15,24,15.50
2010,07,17,15,25,15.50
2010,07,17,15,26,15.40
2010,07,17,15,27,15.30
2010,07,17,15,28,15.20
2010,07,17,15,29,15.00
2010,07,17,15,30,15.00
2010,07,17,15,31,14.90
2010,07,17,15,32,14.80
2010,07,17,15,33,14.90
2010,07,17,15,34,15.00
2010,07,17,15,35,15.10
2010,07,17,15,36,15.20
2010,07,17,15,37,15.20
2010,07,17,15,38,15.10
2010,07,17,15,39,15.10
2010,07,17,15,40,15.20
2010,07,17,15,41,15.30
2010,07,17,15,42,15.30
2010,07,17,15,43,15.30
2010,07,17,15,44,15.20
2010,07,17,15,45,15.20
2010,07,17,15,46,15.30
2010,07,17,15,47,15.30
2010,07,17,15,48,15.30
2010,07,17,15,49,15.30
2010,07,17,15,50,15.30
2010,07,17,15,51,15.30
2010,07,17,15,52,15.40
2010,07,17,15,53,15.40
2010,07,17,15,54,15.50
2010,07,17,15,55,15.40
2010,07,17,15,56,15.40
2010,07,17,15,57,15.40
2010,07,17,15,58,15.50
2010,07,17,15,59,15.40
2010,07,17,16,00,15.40
2010,07,17,16,01,15.50
2010,07,17,16,02,15.60
2010,07,17,16,03,15.80
2010,07,17,16,04,16.00
2010,07,17,16,05,16.10
2010,07,17,16,06,16.10
2010,07,17,16,07,16.20
2010,07,17,16,08,16.20
2010,07,17,16,09,16.20
2010,07,17,16,10,16.40
2010,07,17,16,11,16.40
2010,07,17,16,12,16.40
2010,07,17,16,13,16.20
2010,07,17,16,14,16.30
2010,07,17,16,15,16.20
2010,07,17,16,16,16.20
2010,07,17,16,17,16.20
2010,07,17,16,18,16.10
2010,07,17,16,19,16.10
2010,07,17,16,20,16.20
2010,07,17,16,21,16.30
2010,07,17,16,22,16.40
2010,07,17,16,23,16.30
2010,07,17,16,24,16.20
2010,07,17,16,25,16.30
2010,07,17,16,26,16.30
2010,07,17,16,27,16.20
2010,07,17,16,28,16.30
2010,07,17,16,29,16.40
2010,07,17,16,30,16.50
2010,07,17,16,31,16.50
2010,07,17,16,32,16.40
2010,07,17,16,33,16.40
2010,07,17,16,34,16.40
2010,07,17,16,35,16.40
2010,07,17,16,36,16.40
2010,07,17,16,37,16.40
2010,07,17,16,38,16.50
2010,07,17,16,39,16.60
2010,07,17,16,40,16.60
2010,07,17,16,41,16.50
2010,07,17,16,42,16.60
2010,07,17,16,43,16.70
2010,07,17,16,44,16.70
2010,07,17,16,45,16.70
2010,07,17,16,46,16.60
2010,07,17,16,47,16.60
2010,07,17,16,48,16.80
2010,07,17,16,49,16.90
2010,07,17,16,50,16.90
2010,07,17,16,51,17.00
2010,07,17,16,52,17.00
2010,07,17,16,53,17.10
2010,07,17,16,54,17.10
2010,07,17,16,55,17.10
2010,07,17,16,56,17.00
2010,07,17,16,57,17.00
2010,07,17,16,58,17.10
2010,07,17,16,59,17.20
2010,07,17,17,00,17.30
2010,07,17,17,01,17.50
2010,07,17,17,02,17.50
2010,07,17,17,03,17.60
2010,07,17,17,04,17.80
2010,07,17,17,05,17.90
2010,07,17,17,06,17.90
2010,07,17,17,07,17.90
2010,07,17,17,08,17.90
2010,07,17,17,09,17.80
2010,07,17,17,10,17.70
2010,07,17,17,11,17.60
2010,07,17,17,12,17.60
2010,07,17,17,13,17.50
2010,07,17,17,14,17.50
2010,07,17,17,15,17.50
2010,07,17,17,16,17.60
2010,07,17,17,17,17.60
2010,07,17,17,18,17.60
2010,07,17,17,19,17.70
2010,07,17,17,20,17.80
2010,07,17,17,21,17.70
2010,07,17,17,22,17.70
2010,07,17,17,23,17.60
2010,07,17,17,24,17.50
2010,07,17,17,25,17.30
2010,07,17,17,26,17.30
2010,07,17,17,27,17.30
2010,07,17,17,28,17.30
2010,07,17,17,29,17.30
2010,07,17,17,30,17.30
2010,07,17,17,31,17.30
2010,07,17,17,32,17.30
2010,07,17,17,33,17.50
2010,07,17,17,34,17.60
2010,07,17,17,35,17.70
2010,07,17,17,36,17.70
2010,07,17,17,37,17.80
2010,07,17,17,38,17.90
2010,07,17,17,39,17.90
2010,07,17,17,40,17.90
2010,07,17,17,41,17.90
2010,07,17,17,42,17.80
2010,07,17,17,43,17.70
2010,07,17,17,44,17.60
2010,07,17,17,45,17.70
2010,07,17,17,46,17.70
2010,07,17,17,47,17.70
2010,07,17,17,48,17.70
2010,07,17,17,49,17.70
2010,07,17,17,50,17.60
2010,07,17,17,51,17.50
2010,07,17,17,52,17.50
2010,07,17,17,53,17.50
2010,07,17,17,54,17.50
2010,07,17,17,55,17.60
2010,07,17,17,56,17.60
2010,07,17,17,57,17.50
2010,07,17,17,58,17.50
2010,07,17,17,59,17.60
2010,07,17,18,00,17.60
2010,07,17,18,01,17.60
2010,07,17,18,02,17.50
2010,07,17,18,03,17.50
2010,07,17,18,04,17.50
2010,07,17,18,05,17.40
2010,07,17,18,06,17.40
2010,07,17,18,07,17.40
2010,07,17,18,08,17.40
2010,07,17,18,09,17.40